Tracking 19176 objects as of 26-May-2018
HD Live streaming from Space Station
objects crossing your sky now

INTELSAT 604

Track INTELSAT 604 now!
INTELSAT 604 is classified as:


NORAD ID: 20667
Int'l Code: 1990-056A
Perigee: 36,279.1 km
Apogee: 36,353.7 km
Inclination: 12.5 °
Period: 1,462.9 minutes
Semi major axis: 42687 km
RCS: 9.3925 m2 (large)
Launch date: June 23, 1990
Source: International Telecommunications Satellite Organization (ITSO)
Launch site: AIR FORCE EASTERN TEST RANGE (AFETR)

Inclined orbit; 64 C-band, 24 Ku-band; Broadcasting, business services, direct-to-home TV broadcasting, telecommunications, VSAT networks; Asia Pacific region.
aabbcc
Your satellite tracking list
Your tracking list is empty




NASA's NSSDC Master Catalog

Two Line Element Set (TLE):
1 20667U 90056A   18144.99528740 -.00000232 +00000-0 +00000-0 0  9991
2 20667 012.4779 031.8956 0008732 268.8747 282.3818 00.98435843017483
Source of the keplerian elements: AFSPC